Weather History for KCKC - August, 2014

Change the Weather History Date:

Thursday, August 21, 2014

  Actual Average Record
Temperature  
Mean Temperature 60 °F -  
Max Temperature 64 °F 68 °F 80 °F (2013)
Min Temperature 55 °F 48 °F 35 °F (2004)
Degree Days  
Heating Degree Days 6    
Growing Degree Days 10 (Base 50)    
Moisture  
Dew Point 55 °F    
Average Humidity 84    
Maximum Humidity 94    
Minimum Humidity 73    
Precipitation  
Precipitation 0.02 in - - ()
Sea Level Pressure  
Sea Level Pressure 29.98 in    
Wind  
Wind Speed 3 mph (East)    
Max Wind Speed 10 mph    
Max Gust Speed 16 mph    
Visibility 7 miles    
Events Fog , Rain    
Averages and records for this station are not official NWS values.
T = Trace of Precipitation, MM = Missing Value Source: NWS Daily Summary

Daily Weather History Graph

Daily Weather History Graph

Search for Another Location

Airport or City:

Trip Planner

Search our weather history database for the weather conditions in past years. The results will help you decide how hot, cold, wet, or windy it might be!

Date:

Astronomy

Aug. 21, 2014 Rise Set
Actual Time 6:04 AM CDT 8:03 PM CDT
Civil Twilight 5:31 AM CDT 8:36 PM CDT
Nautical Twilight 4:50 AM CDT 9:17 PM CDT
Astronomical Twilight 4:04 AM CDT 10:02 PM CDT
Moon 2:27 AM CDT (8/21) 5:38 PM CDT (8/21)
Length of Visible Light 15h 04m
Length of Day
13h 58m
Waning Crescent, 13% of the Moon is Illuminated
Aug 21
Waning Crescent
Aug 25
New
Sep 2
First Quarter
Sep 8
Full
Sep 15
Last Quarter

Hourly Weather History & Observations

Time (CDT) Temp. Dew Point Humidity Pressure Visibility Wind Dir Wind Speed Gust Speed Precip Events Conditions
12:13 AM 57.2 °F 55.4 °F 94% 29.98 in 3.0 mi Calm Calm - N/A   Overcast
12:33 AM 57.2 °F 55.4 °F 94% 29.99 in 3.0 mi Calm Calm - N/A   Overcast
12:54 AM 57.2 °F 55.4 °F 94% 29.99 in 4.0 mi Calm Calm - N/A   Overcast
1:13 AM 57.2 °F 55.4 °F 94% 29.99 in 3.0 mi Calm Calm - N/A   Overcast
1:28 AM 57.2 °F 53.6 °F 88% 29.99 in 1.2 mi Calm Calm - N/A   Overcast
1:53 AM 57.2 °F 53.6 °F 88% 29.99 in 0.5 mi Calm Calm - N/A Fog Fog
2:14 AM 57.2 °F 53.6 °F 88% 29.98 in 0.2 mi Calm Calm - N/A Fog Fog
2:29 AM 57.2 °F 53.6 °F 88% 29.98 in 0.2 mi Calm Calm - N/A Fog Fog
2:53 AM 57.2 °F 53.6 °F 88% 29.98 in 0.2 mi Calm Calm - N/A Fog Fog
3:14 AM 57.2 °F 53.6 °F 88% 29.97 in 0.8 mi Calm Calm - N/A   Overcast
3:33 AM 57.2 °F 53.6 °F 88% 29.98 in 0.5 mi Calm Calm - N/A Fog Fog
3:54 AM 57.2 °F 53.6 °F 88% 29.97 in 0.5 mi Calm Calm - N/A Fog Fog
4:13 AM 57.2 °F 53.6 °F 88% 29.97 in 0.5 mi ESE 4.6 mph - N/A Fog Fog
4:34 AM 57.2 °F 53.6 °F 88% 29.97 in 0.2 mi ESE 3.5 mph - N/A Fog Fog
4:53 AM 57.2 °F 53.6 °F 88% 29.98 in 0.2 mi ESE 3.5 mph - N/A Fog Fog
5:13 AM 57.2 °F 53.6 °F 88% 29.97 in 0.2 mi East 4.6 mph - N/A Fog Fog
5:34 AM 57.2 °F 53.6 °F 88% 29.98 in 0.2 mi East 5.8 mph - N/A Fog Fog
5:53 AM 57.2 °F 53.6 °F 88% 29.99 in 0.2 mi East 3.5 mph - N/A Fog Fog
6:13 AM 55.4 °F 53.6 °F 94% 30.00 in 0.2 mi Calm Calm - N/A Fog Fog
6:33 AM 55.4 °F 53.6 °F 94% 30.00 in 0.2 mi East 4.6 mph - N/A Fog Fog
6:54 AM 57.2 °F 53.6 °F 88% 30.00 in 0.5 mi East 3.5 mph - N/A Fog Fog
7:13 AM 57.2 °F 53.6 °F 88% 30.00 in 0.8 mi ENE 4.6 mph - N/A   Overcast
7:34 AM 57.2 °F 53.6 °F 88% 29.99 in 1.0 mi NE 5.8 mph - N/A   Overcast
7:53 AM 57.2 °F 55.4 °F 94% 29.99 in 4.0 mi Calm Calm - N/A   Overcast
8:13 AM 57.2 °F 55.4 °F 94% 29.99 in 10.0 mi Calm Calm - N/A   Overcast
8:34 AM 59.0 °F 55.4 °F 88% 29.97 in 10.0 mi ENE 5.8 mph - N/A   Overcast
8:53 AM 60.8 °F 57.2 °F 88% 29.98 in 10.0 mi East 3.5 mph - N/A   Overcast
9:14 AM 60.8 °F 55.4 °F 82% 29.99 in 10.0 mi SE 3.5 mph - N/A   Overcast
9:34 AM 60.8 °F 55.4 °F 82% 29.99 in 10.0 mi SE 4.6 mph - N/A   Overcast
9:50 AM 60.8 °F 55.4 °F 82% 29.99 in 10.0 mi SE 6.9 mph - N/A   Overcast
10:14 AM 60.8 °F 55.4 °F 82% 29.98 in 10.0 mi East 6.9 mph - N/A   Overcast
10:34 AM 60.8 °F 55.4 °F 82% 29.98 in 10.0 mi East 6.9 mph - N/A   Overcast
10:53 AM 62.6 °F 55.4 °F 77% 29.98 in 10.0 mi ESE 5.8 mph - N/A   Mostly Cloudy
11:14 AM 60.8 °F 55.4 °F 82% 29.98 in 10.0 mi ESE 5.8 mph - N/A   Overcast
11:34 AM 60.8 °F 55.4 °F 82% 29.98 in 10.0 mi East 6.9 mph - N/A   Overcast
11:54 AM 64.4 °F 57.2 °F 77% 29.98 in 10.0 mi East 9.2 mph - N/A   Mostly Cloudy
12:13 PM 62.6 °F 55.4 °F 77% 29.98 in 10.0 mi East 6.9 mph - N/A   Scattered Clouds
12:34 PM 64.4 °F 55.4 °F 73% 29.97 in 10.0 mi East 9.2 mph - N/A   Scattered Clouds
12:54 PM 64.4 °F 55.4 °F 73% 29.97 in 10.0 mi East 5.8 mph - N/A   Unknown
1:13 PM 64.4 °F 55.4 °F 73% 29.98 in 10.0 mi East 6.9 mph - N/A   Scattered Clouds
1:34 PM 64.4 °F 55.4 °F 73% 29.98 in 10.0 mi East 8.1 mph - N/A   Mostly Cloudy
1:53 PM 62.6 °F 55.4 °F 77% 29.98 in 10.0 mi ESE 6.9 mph - N/A   Mostly Cloudy
2:13 PM 64.4 °F 55.4 °F 73% 29.98 in 10.0 mi ESE 4.6 mph - N/A   Mostly Cloudy
2:34 PM 64.4 °F 57.2 °F 77% 29.98 in 10.0 mi East 6.9 mph - N/A   Mostly Cloudy
2:53 PM 62.6 °F 55.4 °F 77% 29.98 in 10.0 mi ENE 10.4 mph - N/A   Mostly Cloudy
3:14 PM 64.4 °F 55.4 °F 73% 29.98 in 10.0 mi East 10.4 mph - N/A   Mostly Cloudy
3:34 PM 64.4 °F 55.4 °F 73% 29.98 in 10.0 mi East 9.2 mph 16.1 mph N/A   Scattered Clouds
3:53 PM 62.6 °F 55.4 °F 77% 29.98 in 10.0 mi ENE 8.1 mph - N/A   Scattered Clouds
4:14 PM 62.6 °F 55.4 °F 77% 29.98 in 10.0 mi East 5.8 mph - N/A   Scattered Clouds
4:33 PM 62.6 °F 55.4 °F 77% 29.97 in 10.0 mi East 5.8 mph - N/A   Scattered Clouds
4:53 PM 62.6 °F 55.4 °F 77% 29.97 in 10.0 mi East 8.1 mph - N/A   Scattered Clouds
5:13 PM 62.6 °F 55.4 °F 77% 29.97 in 10.0 mi East 8.1 mph - N/A   Clear
5:34 PM 62.6 °F 55.4 °F 77% 29.97 in 10.0 mi East 6.9 mph - N/A   Clear
5:53 PM 62.6 °F 55.4 °F 77% 29.98 in 10.0 mi ENE 6.9 mph - N/A   Scattered Clouds
6:13 PM 62.6 °F 55.4 °F 77% 29.98 in 10.0 mi ENE 6.9 mph - N/A   Mostly Cloudy
6:34 PM 62.6 °F 55.4 °F 77% 29.98 in 10.0 mi East 6.9 mph - N/A   Mostly Cloudy
6:53 PM 60.8 °F 55.4 °F 82% 29.98 in 10.0 mi ENE 6.9 mph - N/A   Overcast
7:14 PM 60.8 °F 55.4 °F 82% 29.98 in 10.0 mi NE 4.6 mph - N/A   Overcast
7:34 PM 60.8 °F 55.4 °F 82% 29.98 in 10.0 mi ENE 6.9 mph - N/A Rain Rain
7:53 PM 60.8 °F 55.4 °F 82% 29.98 in 10.0 mi ENE 5.8 mph - N/A   Light Drizzle
8:14 PM 60.8 °F 55.4 °F 82% 29.98 in 10.0 mi NE 5.8 mph - N/A   Overcast
8:33 PM 60.8 °F 55.4 °F 82% 29.99 in 10.0 mi NE 5.8 mph - N/A   Drizzle
8:54 PM - - N/A% 29.99 in 7.0 mi NE 5.8 mph - N/A   Drizzle
9:13 PM 59.0 °F 55.4 °F 88% 30.00 in 10.0 mi ENE 5.8 mph - N/A   Light Drizzle
9:34 PM 59.0 °F 55.4 °F 88% 30.00 in 7.0 mi NE 4.6 mph - 0.01 in   Overcast
9:53 PM 59.0 °F 55.4 °F 88% 29.99 in 10.0 mi ENE 6.9 mph - 0.01 in Rain Light Rain
10:14 PM 59.0 °F 55.4 °F 88% 29.99 in 10.0 mi ENE 5.8 mph - N/A   Light Drizzle
10:33 PM 59.0 °F 55.4 °F 88% 29.99 in 10.0 mi ENE 5.8 mph - 0.01 in   Overcast
10:54 PM 59.0 °F 55.4 °F 88% 29.98 in 10.0 mi NE 8.1 mph - 0.01 in Rain Rain
11:13 PM 59.0 °F 55.4 °F 88% 29.98 in 7.0 mi NE 9.2 mph - N/A   Light Drizzle
11:33 PM 59.0 °F 55.4 °F 88% 29.98 in 10.0 mi NE 8.1 mph - N/A   Overcast
11:54 PM 59.0 °F 55.4 °F 88% 29.98 in 10.0 mi NE 4.6 mph - N/A   Overcast